Wind_Speed
15 16 17 17 17 18 18 19 20 22 24 26 26 27 27 27 27 27 27 26 26 26 26 26 26 25 24 23 22 22 23 23 23 23 23 24 24 24 25 25 26 26 26 27 27 27 27 27 27 27 27 27 26 26 26 26 26 26 26 27 27 27 28 28 28 27 27 26 26 26 26 27 27 27 27 27 27 26 26 25 25 25 26 26 25 25
16 16 16 15 16 16 18 19 20 21 23 25 25 26 26 27 27 28 27 27 26 26 26 27 26 25 24 23 23 23 23 23 23 23 24 24 24 25 25 25 25 26 26 26 27 27 27 27 27 27 27 27 27 27 28 28 28 29 29 28 28 28 28 28 28 27 27 27 27 27 27 27 27 27 27 27 28 28 27 26 25 24 25 26 26 26
16 15 15 15 15 16 17 19 20 21 22 23 24 24 25 26 26 27 27 27 27 26 26 26 26 25 24 23 23 23 23 23 23 23 24 24 25 25 25 25 25 25 25 26 27 27 27 27 27 28 28 28 28 28 29 29 30 30 30 29 28 28 27 27 27 27 27 27 27 27 27 28 28 28 28 28 28 28 28 27 26 25 25 26 26 26
14 14 15 15 15 16 17 19 20 21 22 22 23 23 24 24 25 26 26 26 27 27 27 26 26 25 24 23 23 23 23 23 23 23 24 24 24 24 24 24 24 25 25 26 27 27 28 28 28 28 29 29 29 29 29 30 30 30 30 29 28 28 27 27 27 27 27 27 27 27 27 28 28 28 27 27 28 28 28 28 27 27 27 27 27 27
14 14 14 15 16 17 18 19 20 21 21 22 22 23 23 23 24 25 25 25 26 27 27 26 25 24 24 23 23 23 23 23 23 23 24 24 24 24 23 23 24 25 26 27 27 28 28 28 29 29 30 30 31 31 31 31 31 30 30 29 28 27 27 26 26 26 26 27 27 27 27 27 27 27 27 27 27 27 27 27 27 27 27 27 27 28
15 14 14 15 16 17 19 19 20 20 21 21 22 22 22 23 23 23 24 24 25 26 26 26 25 24 23 23 23 23 23 23 23 23 23 23 23 23 22 22 24 25 26 27 28 28 29 29 30 30 31 32 32 33 32 32 31 30 29 28 27 27 26 26 26 26 26 26 27 27 27 27 26 26 26 26 26 26 26 26 27 26 26 27 27 28
16 15 15 16 17 18 18 19 19 19 20 21 22 22 22 22 22 22 22 23 24 25 25 25 24 24 23 23 24 24 24 24 24 24 23 23 22 22 21 22 24 25 27 28 28 29 29 29 30 31 32 32 33 33 32 32 30 29 28 27 27 26 26 26 26 26 26 26 26 27 27 26 26 26 26 26 26 26 27 27 27 27 27 27 28 29
16 16 16 16 17 18 18 19 19 19 20 20 21 21 21 21 21 21 22 23 23 24 24 24 24 23 23 24 24 24 25 25 24 24 23 23 22 21 21 22 24 26 27 28 28 28 29 29 30 31 31 32 32 32 31 30 29 28 27 26 26 26 26 26 26 26 26 26 26 27 27 27 27 26 27 27 28 28 28 29 29 29 29 30 31 31
17 17 17 17 17 18 19 19 19 19 19 18 18 19 20 21 22 22 22 22 22 22 22 22 22 23 23 23 24 25 24 24 23 22 22 22 21 21 22 23 25 27 28 28 28 28 28 29 29 30 31 31 31 30 29 28 27 27 26 26 26 26 26 26 26 27 27 27 27 27 27 28 28 28 28 29 29 29 30 30 30 30 31 31 31 31
17 17 18 18 17 17 18 19 20 19 17 16 16 17 18 20 21 21 21 21 21 21 21 20 21 22 23 24 24 24 23 22 21 20 20 20 20 21 22 23 25 27 28 28 28 28 28 28 29 29 29 29 29 28 27 27 27 26 26 26 27 27 27 27 27 27 28 28 28 28 28 29 29 29 29 29 30 30 30 30 30 30 30 29 30 30
17 18 18 17 17 17 17 18 18 17 15 15 16 17 17 18 18 19 19 20 21 22 21 20 21 22 23 24 23 22 21 21 21 20 19 19 20 22 24 25 27 28 28 28 28 28 28 28 28 27 27 27 27 27 27 27 27 27 27 27 27 28 28 28 28 28 29 29 29 29 29 29 29 29 29 30 29 29 29 28 28 28 28 28 28 29
17 18 17 17 16 16 17 16 16 14 14 14 15 17 17 17 17 17 18 20 21 22 22 22 21 21 22 22 22 20 19 19 20 20 20 20 22 24 26 28 30 30 29 29 28 28 28 27 26 26 26 26 26 26 26 27 27 27 28 28 28 28 29 29 29 29 29 29 29 29 29 29 29 29 29 29 29 28 28 27 27 27 27 28 28 28
18 17 16 16 16 15 15 14 13 13 13 14 16 17 18 19 19 18 18 19 20 22 22 22 22 21 20 20 19 18 18 18 19 20 21 23 25 27 28 29 29 29 28 27 27 27 27 25 25 25 25 26 26 26 27 27 27 28 28 28 29 29 29 29 28 28 28 28 28 28 28 28 28 28 28 28 28 27 27 27 27 27 27 28 28 28
17 16 15 14 14 14 13 12 12 13 15 16 18 19 20 21 20 19 18 19 20 21 21 21 21 20 18 17 16 16 17 18 20 22 24 26 27 27 28 27 27 26 26 25 25 25 25 25 25 26 26 27 27 28 27 27 27 28 28 28 28 28 28 27 27 27 27 27 26 26 27 27 27 27 27 27 26 26 26 26 27 27 27 28 28 28
16 15 13 13 13 13 12 12 13 15 17 19 20 21 21 21 20 18 17 18 19 20 20 20 19 18 15 14 14 16 18 20 22 24 26 27 27 27 25 25 24 24 24 24 24 25 25 26 27 28 29 29 29 29 28 27 27 28 28 27 27 26 26 26 26 26 25 25 25 25 25 26 26 26 26 26 26 26 26 27 27 27 28 28 28 28
16 14 13 13 13 13 13 14 15 17 19 20 20 20 20 19 18 17 17 17 18 18 17 15 15 15 16 17 17 18 20 21 23 25 25 25 24 23 22 22 23 23 23 23 24 25 26 27 28 29 29 30 29 27 27 27 27 27 27 26 26 25 25 25 25 25 25 25 25 25 25 25 25 25 25 25 25 26 26 26 27 27 27 28 28 28
15 14 13 12 12 13 14 15 16 17 19 19 19 19 19 18 18 18 17 16 16 15 13 12 11 11 15 19 20 19 20 22 24 24 23 23 22 21 21 21 22 23 24 24 25 25 26 27 28 29 29 29 27 26 27 27 27 26 26 26 25 25 25 25 25 25 25 25 25 25 25 25 25 25 25 25 25 25 26 26 26 27 27 27 27 28
13 13 13 12 12 13 15 16 17 17 18 18 18 19 19 19 19 18 17 16 14 13 12 12 12 11 13 17 20 21 21 23 23 23 22 22 22 22 21 21 21 22 23 24 25 26 26 27 28 28 28 27 26 26 26 26 26 26 25 25 25 25 25 25 24 24 25 24 24 24 24 24 24 24 24 25 25 25 25 26 26 27 27 27 28 28
13 13 13 13 14 15 16 17 17 17 17 17 17 18 18 19 19 18 17 15 14 12 11 12 14 16 16 18 21 23 24 24 23 22 21 21 21 22 21 21 21 22 23 24 25 25 26 27 27 28 27 27 26 26 26 26 25 25 25 25 25 25 24 24 24 24 24 24 24 24 24 24 24 24 24 25 25 25 26 26 26 27 27 28 28 28
16 16 16 17 17 17 16 17 17 17 17 17 17 17 18 19 19 17 16 14 12 11 11 13 15 17 18 20 22 24 25 25 23 21 19 20 20 21 21 20 21 22 23 24 25 25 25 26 27 27 27 26 25 25 25 25 25 25 25 25 25 24 24 24 24 24 24 23 23 23 23 24 24 24 25 25 25 26 26 26 27 27 27 27 27 27
20 20 20 19 18 17 17 18 18 18 19 19 19 18 18 19 18 16 14 12 11 12 12 13 15 17 19 20 22 24 24 24 22 19 18 19 20 20 20 20 21 22 23 24 25 25 25 26 26 26 26 25 25 25 25 25 25 25 25 25 24 24 24 24 24 24 23 23 23 23 24 24 24 24 25 25 26 26 26 27 27 27 27 26 25 25
22 22 22 22 21 20 21 22 22 22 22 21 21 20 19 19 17 15 13 12 12 13 14 15 16 18 20 21 22 23 22 21 20 18 16 17 18 20 21 21 21 22 23 24 24 24 25 25 26 25 25 24 24 24 24 24 24 24 24 24 24 25 25 25 24 24 24 24 24 24 24 24 24 24 25 25 26 26 26 26 26 26 25 24 24 24
23 24 25 25 25 25 25 25 25 24 22 22 22 23 22 21 18 15 13 12 12 13 15 16 18 19 20 20 20 20 19 17 17 16 14 13 16 20 21 21 21 21 22 23 24 25 25 25 25 25 25 24 24 24 24 24 24 24 24 24 25 25 25 25 25 25 25 25 24 24 23 24 24 24 25 25 26 26 26 26 25 25 24 23 23 23
23 24 25 25 25 25 25 25 24 23 22 22 22 23 23 21 17 13 11 11 13 14 16 18 19 19 19 18 18 17 16 15 14 14 13 13 16 19 21 21 21 21 23 23 24 24 25 25 25 25 24 24 24 23 23 23 23 24 24 25 25 24 25 25 25 25 25 25 24 24 23 23 24 24 25 26 27 27 26 26 25 24 23 22 22 22
23 24 24 24 24 24 24 23 23 23 23 23 23 23 20 15 10 9 10 12 14 15 17 18 17 17 16 16 15 15 14 13 13 13 13 13 16 19 21 21 20 21 23 24 24 24 24 25 25 25 24 24 24 23 23 23 23 24 24 24 24 24 24 24 24 24 25 25 24 24 23 23 24 25 26 27 27 27 27 27 26 25 24 23 22 21
23 24 24 24 24 24 24 23 23 23 23 23 22 19 15 10 9 10 13 14 15 15 16 15 14 14 15 15 14 14 14 14 14 13 13 13 15 18 20 20 20 21 22 23 23 23 23 23 24 25 24 25 24 24 23 23 23 24 24 24 24 23 23 24 24 24 24 24 24 24 24 24 25 26 27 27 28 28 28 27 27 26 25 24 22 21
23 23 24 24 25 25 24 24 23 23 22 22 19 16 13 11 11 13 14 15 14 14 12 11 11 13 14 14 13 14 15 15 14 13 13 14 15 17 19 20 21 21 22 22 22 22 21 22 23 24 24 24 24 24 24 24 24 24 24 23 23 23 23 23 24 24 24 24 23 23 23 24 24 25 26 27 27 28 28 28 28 27 26 25 23 22
23 23 23 24 24 25 25 24 24 23 22 21 19 16 13 13 12 12 13 13 13 11 9 9 9 10 11 12 13 14 15 14 12 12 14 16 15 16 19 20 21 20 21 21 22 22 21 21 21 22 23 24 24 25 25 24 24 24 23 22 22 22 23 23 23 24 23 23 23 23 23 23 24 24 25 26 26 27 27 27 27 27 27 26 26 26
24 24 24 25 25 25 25 25 24 24 23 22 19 15 13 12 12 12 12 11 10 9 9 9 10 10 10 12 14 15 14 12 11 13 15 16 16 16 19 19 19 19 19 19 21 21 21 20 20 20 22 23 24 25 25 25 25 25 24 23 23 22 23 23 23 23 23 22 22 22 22 23 24 24 25 25 25 25 26 26 26 26 27 27 27 26
26 26 26 26 26 26 26 25 25 25 25 22 18 13 11 11 12 12 11 9 8 8 9 10 10 10 10 11 12 11 10 11 12 13 16 15 15 16 18 18 18 18 16 15 14 14 18 21 21 21 21 23 24 24 25 25 24 24 24 24 25 24 24 24 23 23 23 22 22 22 22 23 23 24 24 24 24 24 24 25 25 25 26 26 26 25
27 27 27 27 27 26 26 26 26 25 25 21 17 13 11 11 11 11 9 8 8 8 9 10 11 11 11 8 6 4 6 11 14 15 16 14 14 15 17 17 16 16 14 12 8 6 11 18 23 24 24 24 24 24 23 22 22 22 23 24 25 26 25 24 24 24 24 23 22 22 22 23 23 24 24 24 24 24 24 24 24 24 25 25 25 24
27 27 28 28 28 27 27 26 25 23 21 18 14 12 11 11 10 9 8 8 8 8 10 11 13 13 12 9 6 5 8 13 15 16 16 14 14 15 15 15 14 14 13 13 11 8 6 10 19 26 27 26 25 24 22 21 21 21 22 23 25 26 26 25 25 24 24 24 23 23 23 23 23 23 24 24 24 24 23 23 23 24 24 24 24 24
26 26 27 27 27 28 28 27 24 20 17 14 11 10 10 9 9 9 8 8 8 8 10 11 13 13 13 12 10 10 12 14 16 16 16 15 14 14 14 13 12 13 14 15 15 14 11 13 19 25 27 27 25 23 22 20 20 20 21 23 24 25 26 26 25 25 25 24 25 25 25 24 23 23 24 24 24 23 23 23 23 23 23 23 23 23
23 23 23 24 25 26 26 24 20 16 13 11 9 9 8 8 8 8 8 8 8 8 9 11 12 13 13 12 12 12 13 15 16 16 16 16 14 13 13 12 12 13 14 15 16 17 17 19 20 22 24 26 25 23 21 19 19 20 21 22 23 24 25 25 25 25 25 25 26 26 26 25 24 24 24 25 24 24 24 24 24 23 22 21 21 21
19 19 20 21 22 23 22 18 15 12 10 9 8 8 8 8 8 8 8 7 8 8 9 10 11 12 12 12 12 12 14 16 17 16 15 15 14 13 12 12 12 13 14 15 16 17 17 19 21 21 21 23 24 23 21 19 19 21 22 22 22 23 24 24 24 24 25 26 26 26 25 24 24 24 25 25 25 24 24 25 25 24 22 21 20 20
17 17 18 18 19 18 16 13 11 10 9 9 8 8 8 8 8 8 7 7 7 8 9 10 10 10 10 11 12 14 16 17 16 14 13 12 12 12 11 11 12 14 14 15 16 17 17 19 21 21 20 19 19 21 22 22 22 22 23 23 23 23 23 23 23 23 24 25 24 24 23 23 24 25 26 26 25 25 25 26 26 25 24 22 20 19
17 17 18 17 16 14 13 12 12 11 10 10 9 8 8 8 8 7 6 6 7 7 8 9 9 9 9 10 12 13 15 15 14 12 10 10 10 10 11 12 14 15 15 15 16 17 17 18 19 20 19 17 16 17 20 23 24 24 24 25 24 24 23 22 22 23 24 23 23 23 23 23 24 25 26 26 26 26 27 28 28 27 25 23 21 19
18 18 19 18 16 14 13 13 14 13 11 9 7 7 7 7 7 6 6 6 6 6 7 7 8 8 9 10 11 12 13 12 11 10 9 9 9 10 11 13 15 17 17 17 17 17 17 15 14 13 15 16 17 18 20 21 23 24 25 26 25 23 22 22 22 23 23 23 22 22 22 23 24 25 26 26 27 28 29 30 30 28 26 25 22 20
17 18 18 18 17 16 15 16 15 12 9 7 6 6 6 6 7 6 6 6 6 6 6 7 7 8 9 10 11 11 11 10 9 9 9 10 10 11 13 15 17 19 20 19 18 17 15 14 13 12 13 15 18 20 21 21 21 22 25 26 25 24 22 23 23 23 23 22 22 21 22 24 24 25 25 25 25 26 28 31 31 30 28 27 25 23
16 17 18 18 17 17 17 17 15 11 7 6 6 6 6 7 7 7 6 6 5 5 6 7 7 8 9 10 10 10 10 9 8 9 10 11 12 13 14 16 18 20 21 21 19 17 16 15 15 15 15 15 17 19 20 20 20 21 22 21 22 22 24 24 24 23 22 22 22 22 23 24 25 24 25 25 26 27 28 30 31 30 29 27 25 24
16 17 18 18 18 18 19 18 15 10 8 7 7 6 7 7 8 8 7 6 5 5 6 7 8 9 9 10 10 10 9 8 8 9 10 12 13 14 15 16 18 21 22 22 21 19 18 16 16 16 16 16 17 18 19 20 20 19 18 18 19 22 25 24 23 21 21 21 22 23 24 25 25 25 26 26 27 28 30 30 30 30 27 25 23 23
16 18 19 19 19 19 19 16 13 10 10 9 8 7 7 8 8 8 7 6 6 6 7 8 9 10 11 11 11 10 9 9 9 10 11 12 14 14 15 17 19 21 22 23 22 21 20 18 16 16 16 17 17 17 18 19 20 19 17 17 19 22 23 22 21 20 21 22 24 25 26 26 27 28 28 28 29 30 31 30 29 28 26 25 24 23
18 19 20 20 20 19 16 13 11 11 11 10 8 8 7 8 8 7 7 7 7 8 8 9 9 10 11 12 13 12 11 10 10 10 11 13 14 15 16 18 19 21 22 22 22 22 21 19 18 17 18 18 17 16 17 19 20 19 18 18 18 18 17 19 21 22 23 25 26 28 28 29 29 29 29 29 30 31 31 31 30 28 26 26 26 25
18 19 19 20 20 18 15 12 12 12 11 9 8 7 7 7 7 6 7 7 8 8 8 9 10 11 11 12 13 14 14 13 12 11 12 13 14 15 16 18 20 21 21 21 21 21 22 21 20 19 19 18 17 17 17 18 19 19 19 19 17 16 16 18 21 23 24 26 28 29 30 30 30 30 30 30 31 31 31 31 31 30 29 28 27 26
17 18 18 18 19 17 15 13 12 11 9 8 7 7 7 6 6 6 6 7 7 8 8 9 10 10 10 11 13 15 16 15 15 14 14 14 15 15 16 18 19 20 21 21 20 20 20 21 21 21 20 18 17 17 17 17 18 19 19 19 19 18 19 20 21 22 24 26 28 30 31 32 31 29 28 28 29 30 31 31 31 31 30 29 27 26
17 16 16 17 16 15 13 12 10 9 7 7 6 6 6 5 5 5 6 6 7 7 8 9 9 9 10 12 14 15 16 17 17 17 17 16 16 15 16 17 18 20 20 20 20 19 19 20 20 20 19 18 17 16 16 16 16 18 19 20 20 20 20 20 21 23 24 26 28 30 32 32 30 27 25 26 28 30 30 31 30 30 30 29 28 27
17 16 15 15 14 13 11 9 8 7 6 6 6 6 5 4 4 4 5 6 6 7 7 9 9 9 10 12 13 15 16 17 18 19 18 18 17 16 16 17 18 20 20 20 19 18 18 17 16 15 15 15 15 14 14 14 15 17 19 20 20 20 20 21 23 25 27 27 28 29 31 31 28 25 25 26 27 27 29 30 31 30 29 28 28 27
17 15 15 14 13 11 10 8 7 6 6 6 5 5 4 4 4 4 4 5 5 6 7 8 9 9 10 12 13 14 15 16 18 19 19 18 17 17 17 18 20 21 21 19 18 18 17 14 11 9 9 10 10 12 13 15 16 17 18 18 18 18 19 21 24 26 27 27 28 30 30 29 26 25 25 25 24 24 27 29 31 30 29 28 27 27
17 16 14 13 12 10 9 7 7 6 6 5 5 4 4 4 3 3 3 4 5 6 7 8 9 9 11 12 14 15 16 16 17 18 18 17 16 16 17 19 21 22 22 20 19 18 18 14 7 3 4 6 8 11 14 17 19 19 18 18 17 17 19 21 24 25 27 28 29 30 30 28 27 26 25 22 21 22 25 28 29 29 29 28 27 27
16 15 14 13 11 9 8 7 6 6 6 5 5 4 3 3 3 3 3 4 5 6 7 7 8 9 10 12 13 14 15 16 17 17 17 15 14 15 17 19 22 23 22 21 19 19 19 17 10 4 2 5 8 11 14 18 20 20 19 18 17 18 19 20 23 25 26 28 29 30 30 29 28 26 23 21 20 21 23 25 26 27 29 29 29 29
14 14 13 12 10 8 7 6 6 5 5 6 5 4 3 2 2 2 3 3 4 5 5 6 7 8 10 11 13 13 14 15 16 16 15 13 13 14 16 19 21 21 20 19 18 18 17 16 13 8 7 6 7 10 12 16 18 19 19 19 19 20 19 20 22 25 27 27 28 29 29 28 26 24 22 21 20 20 21 22 24 27 29 30 30 30
Wind_Direction
294 298 303 306 309 311 312 315 317 318 319 321 324 326 328 329 330 331 332 333 333 334 334 335 335 336 337 338 339 339 337 334 330 327 325 324 323 323 324 325 326 327 328 328 328 328 327 326 325 324 322 321 319 318 317 316 316 315 315 315 314 314 313 313 312 311 310 310 309 310 309 309 309 309 308 308 309 310 308 307 307 307 307 309 310 310
296 300 303 306 308 310 310 313 316 317 317 319 321 324 325 326 327 328 330 331 332 332 332 332 332 333 335 336 337 337 336 333 329 326 324 323 322 321 321 322 324 325 325 326 326 326 326 325 324 323 321 320 319 318 317 317 316 316 316 315 315 313 312 311 311 310 310 310 310 310 309 309 308 307 307 306 306 307 307 307 307 307 306 307 308 310
298 300 302 305 308 309 310 312 314 315 316 316 318 320 322 322 323 324 326 327 329 329 329 329 329 330 332 333 335 335 334 331 327 325 323 321 320 319 319 319 320 321 322 323 324 323 323 322 322 321 320 319 317 316 315 314 314 314 314 313 312 311 310 309 309 309 309 309 309 308 307 307 306 305 305 304 303 304 305 306 307 307 306 305 305 307
296 298 301 305 308 308 308 310 311 313 313 314 315 316 318 318 319 320 321 322 324 324 325 326 327 327 328 330 332 332 331 328 324 322 320 318 317 316 316 316 317 318 320 321 321 321 321 320 319 319 318 317 315 314 312 311 311 311 311 310 310 309 308 308 309 309 309 308 308 307 306 305 304 303 303 303 303 303 304 306 306 305 304 304 304 304
293 296 300 305 307 307 307 308 309 310 311 311 312 313 315 315 315 316 317 319 319 319 320 322 323 324 325 326 328 328 327 323 320 318 317 316 315 314 312 313 315 317 318 318 319 318 318 318 317 317 316 315 313 312 311 310 309 309 309 308 308 307 308 308 308 308 308 307 307 306 305 304 304 304 304 304 305 305 306 306 306 305 304 304 304 303
290 294 299 303 304 305 306 306 307 308 309 309 310 311 312 313 313 313 314 314 315 315 316 317 319 321 322 322 323 323 321 318 316 315 315 314 312 310 309 312 314 316 316 317 317 316 316 316 315 315 314 313 312 311 310 309 309 308 308 308 307 308 308 308 308 308 308 307 306 305 304 304 305 306 307 308 308 308 308 307 307 306 305 304 303 303
290 293 298 301 301 302 303 304 305 307 307 307 308 310 311 311 311 311 310 311 311 312 313 314 316 318 319 319 319 318 316 315 313 313 313 311 309 307 308 311 314 315 315 316 315 315 315 314 314 314 313 312 311 310 310 309 309 308 308 309 309 309 309 309 309 308 308 307 307 306 306 307 308 310 310 310 309 308 308 307 307 305 304 303 302 301
287 292 297 299 301 302 302 302 304 306 306 305 306 308 309 310 310 309 309 310 310 311 312 313 314 315 316 317 317 315 313 312 311 311 311 310 308 307 309 311 313 314 315 315 314 314 314 314 314 313 313 312 312 311 311 310 310 310 310 311 311 311 311 310 310 309 309 308 309 309 309 310 311 311 310 309 308 307 305 305 304 303 302 302 301 300
281 288 294 297 298 300 301 302 304 305 305 303 303 305 307 309 309 310 310 310 311 311 312 312 311 312 313 314 314 313 311 309 308 308 308 309 309 310 311 312 313 314 314 314 313 313 313 313 313 313 313 313 313 313 312 312 312 312 313 313 313 313 312 311 311 310 310 310 310 310 311 311 310 310 309 308 306 305 304 303 302 302 301 301 300 300
279 284 290 293 294 295 297 299 302 304 302 301 301 303 305 307 309 310 311 311 311 312 312 311 310 310 311 312 313 312 310 308 306 305 305 308 310 311 312 312 312 312 313 312 312 312 313 314 314 314 314 314 314 314 314 315 315 315 314 314 314 313 313 312 311 311 311 310 310 310 310 309 309 309 308 307 306 305 304 303 302 302 301 301 301 301
282 284 285 287 290 292 293 295 298 300 300 302 303 304 305 306 308 310 310 311 312 312 312 311 310 309 308 309 310 309 307 306 306 307 308 310 312 313 313 312 311 311 311 311 312 314 316 316 315 314 314 315 315 315 315 316 315 315 315 314 314 313 313 312 311 311 310 310 309 309 309 309 308 307 307 306 305 305 304 303 302 301 301 301 301 301
280 282 282 283 287 291 294 295 295 296 300 305 308 309 309 309 308 308 307 308 309 310 310 310 309 308 307 306 307 307 305 306 308 312 314 315 315 315 315 313 312 311 311 313 315 317 318 316 315 313 314 315 315 315 315 315 315 314 314 313 313 313 312 311 311 310 310 309 309 308 308 308 307 306 305 305 304 304 303 303 302 301 301 301 300 300
277 277 276 278 282 287 291 293 295 298 302 306 308 308 307 308 307 306 303 302 303 304 305 306 307 307 306 305 305 307 308 311 314 316 316 316 316 316 315 313 312 312 313 315 317 317 317 315 314 313 314 314 314 314 314 314 314 314 313 313 313 312 312 311 311 310 310 309 309 308 308 308 307 306 305 304 304 304 303 303 303 302 301 300 299 298
274 273 270 272 277 282 286 289 292 297 301 303 303 302 302 303 304 304 302 299 300 302 304 303 303 305 306 307 310 312 314 317 318 317 316 315 315 316 315 313 312 313 315 315 315 314 314 314 314 314 314 315 315 315 315 314 314 314 314 313 313 313 312 312 311 311 311 311 311 310 310 309 308 307 306 306 306 306 306 305 304 302 301 300 299 298
269 268 267 269 274 280 284 289 293 296 298 299 299 299 299 300 301 301 300 298 300 302 304 302 302 304 307 311 314 316 318 319 320 318 316 315 315 316 316 313 312 313 313 313 312 312 314 314 314 315 316 317 317 317 316 315 314 315 315 315 314 314 314 313 313 313 313 313 313 313 312 311 310 309 309 308 308 308 307 305 303 302 301 300 299 298
266 265 265 268 272 277 282 288 292 293 295 296 296 296 296 296 297 297 297 295 297 300 301 303 306 310 311 312 314 316 320 321 320 318 315 314 315 316 316 313 311 310 311 311 311 313 314 315 316 316 318 319 318 316 316 316 316 316 316 316 316 316 316 316 316 316 316 315 314 313 312 311 310 309 308 307 306 305 304 302 301 301 301 300 299 299
262 261 261 263 267 274 283 287 288 289 291 292 292 291 291 291 293 294 293 292 294 298 299 306 312 315 314 315 316 319 321 322 320 317 314 313 314 315 315 312 309 308 310 311 312 313 314 315 316 318 319 318 317 316 317 317 317 317 318 317 317 317 318 318 319 318 317 315 314 313 312 310 309 308 306 306 305 304 303 303 303 302 302 301 301 300
259 257 258 261 267 277 285 288 287 287 287 288 289 290 290 291 292 292 290 290 291 294 299 307 311 312 312 313 314 317 320 320 318 316 313 312 313 315 315 313 310 309 310 311 312 313 315 316 317 318 318 317 316 316 317 318 318 318 318 318 318 319 320 320 320 319 317 315 313 312 311 310 308 308 307 307 306 306 305 305 305 305 304 303 302 301
266 263 264 270 277 283 285 285 285 284 284 285 287 290 290 291 292 291 289 288 287 289 297 305 307 307 307 306 308 312 316 317 316 314 312 310 312 314 316 315 312 311 311 311 312 314 315 316 317 317 316 316 316 316 317 318 319 319 319 319 320 320 321 320 320 319 317 315 313 312 311 310 310 309 308 307 306 306 305 305 304 304 303 302 301 301
278 275 277 281 285 287 285 282 282 282 283 284 286 287 288 291 291 289 286 286 286 290 297 301 303 303 304 305 307 310 315 316 315 312 309 309 310 313 315 316 314 312 311 311 313 314 316 316 315 315 315 315 316 316 317 319 319 319 319 320 321 321 321 320 319 318 317 315 314 313 313 312 311 310 308 307 307 305 305 304 303 302 300 300 300 301
282 281 281 282 283 283 282 281 281 282 284 285 285 285 286 288 288 285 284 285 289 296 301 300 300 302 304 305 307 310 315 316 312 309 308 308 309 311 315 316 315 313 311 312 313 315 315 314 314 313 314 315 315 316 317 319 319 319 320 320 321 321 321 320 320 319 318 317 316 315 314 313 311 310 309 307 306 305 304 303 302 301 301 302 303 303
280 280 280 279 278 277 278 280 282 284 286 286 283 281 282 282 282 280 282 287 294 300 302 301 300 302 304 303 305 310 316 316 310 305 306 306 307 310 315 316 315 313 311 312 313 315 314 313 312 312 313 313 314 316 317 318 319 319 320 320 320 321 320 321 321 321 320 319 318 317 316 314 313 311 310 308 306 305 305 305 305 305 306 307 307 307
278 278 280 280 279 280 281 283 286 287 287 285 283 281 280 278 277 278 282 289 297 302 304 304 305 306 307 307 309 314 319 319 314 309 304 303 306 310 315 317 316 313 311 312 314 315 314 313 311 311 312 312 313 314 316 317 318 319 319 320 320 320 320 321 321 321 321 320 320 319 317 316 314 313 312 311 311 311 312 312 312 312 312 312 311 309
279 279 280 281 282 283 284 285 286 286 284 282 280 280 280 280 280 284 290 297 303 307 309 310 311 312 312 312 313 315 319 322 320 314 307 303 305 309 313 316 316 313 311 312 313 314 313 312 311 311 312 313 314 315 316 317 317 318 319 319 320 320 321 321 321 321 321 321 321 320 319 319 318 318 318 318 319 320 321 321 320 319 317 315 313 311
285 283 283 283 283 283 283 283 284 284 283 281 278 277 278 280 284 290 295 300 306 310 313 315 315 314 314 315 315 316 320 324 324 318 311 306 306 308 312 315 316 313 312 312 313 314 312 311 311 311 312 313 315 317 317 317 318 318 319 319 320 320 321 321 322 322 322 322 322 323 323 323 323 324 324 325 326 327 327 326 325 323 321 318 315 312
289 287 286 284 283 282 281 280 281 282 282 279 277 276 278 281 288 293 295 300 306 313 318 320 316 312 312 313 314 316 321 324 324 322 318 314 310 310 312 315 316 314 312 312 313 313 312 310 311 312 313 314 317 319 319 319 319 319 319 319 319 320 321 322 323 323 323 324 324 325 325 326 327 328 328 330 330 331 330 329 328 327 325 322 319 315
286 285 284 284 282 280 279 278 277 277 275 274 273 274 278 283 289 294 297 302 308 315 320 317 312 309 310 311 312 314 318 320 321 322 323 322 317 312 312 315 315 314 312 311 311 312 311 310 310 311 313 316 318 320 320 320 319 319 319 320 320 321 322 323 324 324 325 325 326 326 327 328 328 330 331 332 332 332 332 332 331 330 329 327 324 321
287 286 284 282 281 280 280 279 277 274 272 270 269 269 272 277 284 290 294 300 307 312 311 305 303 305 307 309 310 311 315 317 319 321 323 325 319 312 311 314 315 314 311 311 311 312 312 311 310 312 314 317 319 320 320 320 321 321 321 321 321 322 323 324 324 325 326 327 327 327 327 328 329 329 331 332 332 333 333 333 333 333 332 331 329 327
295 294 291 288 285 282 280 278 276 273 269 266 262 259 262 268 276 283 288 296 302 304 298 295 296 300 302 305 308 310 312 314 318 323 325 325 318 311 312 314 315 314 313 313 315 316 315 314 314 315 317 318 319 320 321 322 323 324 325 324 323 323 324 325 326 327 327 327 327 327 327 328 328 328 329 331 332 332 333 334 335 335 334 333 331 328
299 299 297 295 293 289 284 278 273 269 264 258 253 250 256 267 276 283 286 290 294 293 290 289 291 294 298 305 309 311 311 315 320 325 327 324 316 311 314 314 314 315 318 320 321 320 318 317 317 318 319 319 319 320 321 322 324 325 326 326 325 325 326 327 328 328 329 329 329 328 328 328 328 328 328 329 330 332 333 334 335 335 334 332 330 328
299 298 298 298 296 294 291 285 278 270 262 257 254 256 264 274 279 280 279 281 286 289 287 286 287 289 293 302 309 310 308 313 318 324 326 319 311 309 312 313 314 318 326 333 334 324 319 319 319 319 320 320 320 320 321 322 324 325 325 325 325 325 327 328 329 330 331 332 331 330 329 328 327 327 328 328 329 330 332 334 335 335 333 331 328 326
294 294 294 295 295 294 293 292 286 276 266 260 259 264 273 277 275 272 271 275 283 288 288 287 287 289 290 291 290 292 299 308 314 320 322 315 307 307 310 311 314 322 332 337 334 323 315 315 317 318 319 319 319 319 320 321 323 325 325 325 325 326 327 329 330 332 333 332 332 332 331 329 327 327 327 327 328 330 331 333 334 333 332 330 327 324
288 288 289 290 290 291 292 291 286 276 263 256 259 268 275 271 266 263 267 273 281 286 287 287 287 289 292 291 289 291 298 304 311 317 319 314 308 307 311 315 320 326 331 331 326 319 310 308 311 314 316 316 316 316 318 320 322 324 324 325 324 325 327 329 331 333 332 332 333 334 333 329 327 326 326 326 327 328 330 331 331 331 330 328 325 323
287 287 287 288 288 289 290 286 278 264 251 251 261 271 269 260 255 257 263 271 278 283 286 286 287 289 293 295 295 297 300 304 312 319 321 316 311 309 314 320 325 328 328 326 323 319 313 310 310 312 313 313 313 314 316 319 321 322 322 323 323 323 325 329 330 331 332 332 332 333 333 330 327 325 325 326 327 327 327 328 329 329 328 326 323 320
292 290 289 289 290 290 287 279 265 250 245 256 266 267 259 250 250 254 261 269 275 280 283 286 289 292 295 296 297 299 301 307 316 323 324 320 315 313 316 319 323 325 325 322 321 320 316 312 311 311 311 311 311 312 314 318 320 321 321 322 322 322 323 327 328 329 330 330 330 330 329 327 326 324 324 325 326 325 325 325 326 327 326 324 321 318
296 293 292 293 292 289 281 267 253 247 253 262 264 257 248 245 247 252 259 267 273 279 282 286 290 295 299 301 301 301 304 313 321 326 325 322 318 316 313 313 317 320 322 321 320 318 316 313 312 311 310 309 310 311 314 318 321 322 322 323 323 323 324 327 329 328 328 327 326 325 325 324 324 323 324 324 324 323 324 325 327 328 327 324 321 316
298 296 294 292 288 280 267 254 248 250 256 259 254 244 239 242 247 253 259 265 271 278 283 288 293 298 303 307 309 310 312 317 321 323 322 319 314 310 309 310 315 320 322 320 318 316 315 313 312 311 310 308 307 310 314 319 322 323 323 323 323 323 325 328 330 329 327 325 323 323 323 323 323 323 324 324 324 324 325 328 330 331 330 328 325 320
298 294 290 285 278 267 256 248 247 250 253 249 240 232 235 243 250 257 263 268 274 280 286 291 297 303 310 314 316 317 317 318 320 320 317 311 306 305 308 313 318 322 324 322 318 315 313 311 310 310 309 307 306 307 311 316 319 320 320 321 322 324 326 328 330 329 328 325 324 323 323 323 324 324 324 324 324 324 325 328 331 333 333 332 331 327
295 291 287 281 273 263 255 249 248 249 247 235 222 222 233 247 257 263 269 273 279 286 292 299 305 311 316 321 323 323 321 320 319 316 311 306 304 305 310 316 321 324 326 325 322 316 310 305 303 302 304 305 307 308 311 313 315 317 319 321 323 325 327 328 329 329 328 326 325 324 324 325 325 325 324 323 323 323 323 325 328 331 333 333 332 330
292 289 286 282 277 271 264 258 255 250 238 220 212 218 234 249 260 266 272 278 287 298 306 310 313 317 322 326 328 327 325 322 317 312 308 305 306 308 312 318 323 327 328 326 323 317 309 302 297 296 297 300 303 306 308 310 311 314 318 321 322 323 324 326 327 327 328 326 325 324 324 325 325 325 323 322 321 321 321 323 327 330 332 331 328 325
291 287 286 284 282 278 274 267 260 246 224 211 210 220 236 251 259 266 274 285 301 314 320 322 322 322 324 328 331 332 330 326 321 315 312 311 311 313 316 321 326 329 329 327 323 317 311 303 298 296 296 297 299 302 303 304 306 310 313 314 314 316 318 321 323 325 326 325 324 323 324 324 325 324 323 322 321 322 324 325 326 328 330 330 327 322
291 287 287 286 285 282 279 270 253 231 214 208 212 223 238 250 260 269 281 300 318 330 332 331 329 329 328 329 332 333 334 331 327 322 319 317 316 317 320 325 328 330 330 327 323 318 313 306 299 295 295 296 298 299 300 301 303 307 308 308 309 312 315 319 322 323 324 323 323 324 324 325 325 324 323 321 322 324 328 329 329 328 327 328 328 327
295 292 292 290 288 285 279 261 235 215 207 206 214 227 240 252 263 277 296 317 332 338 338 335 333 331 330 329 330 331 333 334 331 328 324 322 321 322 324 327 330 331 330 326 321 317 314 310 303 297 296 297 296 294 295 298 302 306 309 309 310 312 315 317 319 322 322 323 324 325 326 326 326 325 324 322 323 326 329 330 331 331 331 331 331 332
299 298 296 291 287 282 270 245 221 208 204 207 217 231 242 252 266 285 309 327 336 340 340 337 334 331 328 327 327 329 330 332 333 333 329 326 325 325 326 328 329 330 329 326 320 316 314 311 306 304 304 302 297 292 292 294 299 305 310 313 313 309 306 309 314 318 320 323 325 328 329 329 328 327 325 325 325 326 328 329 331 333 335 336 335 333
303 302 297 290 283 272 254 233 216 206 206 212 225 236 243 253 271 296 318 330 336 340 340 338 334 330 326 324 325 327 328 330 333 335 334 331 328 327 327 327 328 329 329 326 322 316 311 306 305 307 309 305 299 293 290 293 298 305 312 317 316 312 308 309 312 316 318 322 325 329 331 332 330 328 326 325 325 325 326 327 329 331 333 335 334 333
304 302 298 291 281 266 246 229 215 209 211 221 233 241 248 261 281 304 320 330 337 340 339 337 333 329 324 323 325 327 328 330 332 334 335 333 330 328 327 327 327 329 329 328 326 321 314 308 306 306 307 304 301 298 297 300 303 307 313 318 319 317 316 316 317 319 321 323 325 329 333 334 333 329 325 323 322 323 325 327 327 328 330 332 332 331
298 298 296 291 280 265 246 229 217 213 219 229 241 250 258 271 288 306 319 330 337 341 339 336 331 326 322 324 327 329 330 330 331 333 335 335 333 330 328 328 329 331 332 332 331 329 324 319 313 307 302 298 296 299 310 317 316 314 314 318 319 319 318 318 320 323 326 326 326 329 333 334 332 328 324 323 322 322 324 326 328 329 329 330 330 330
292 291 291 287 277 261 242 226 216 215 222 235 250 261 268 275 287 303 319 331 339 342 339 333 327 324 323 326 329 331 332 330 330 332 334 335 335 333 332 333 334 336 337 338 338 338 337 333 325 310 300 295 293 298 311 320 322 320 318 319 319 319 318 318 321 325 328 329 330 331 333 330 327 324 322 321 320 320 321 324 326 329 331 331 330 329
291 286 285 282 271 253 233 217 210 214 226 245 265 275 271 272 280 298 319 332 338 337 333 327 324 324 327 329 332 334 336 334 334 335 336 337 338 338 338 339 341 342 343 343 344 346 349 352 349 326 314 317 313 311 315 320 322 322 322 321 321 320 319 319 321 325 327 329 331 333 333 331 328 324 320 316 315 316 319 322 325 328 331 332 332 332
291 285 283 278 265 246 225 212 210 219 238 264 281 286 271 263 273 295 319 330 333 331 327 324 325 328 330 331 333 336 338 339 339 339 340 342 344 345 345 346 348 348 348 347 347 348 352 358 6 22 8 339 330 324 320 321 323 324 325 325 324 323 321 319 321 324 326 327 329 331 332 331 329 327 322 317 314 316 319 322 325 328 331 334 335 335
292 286 282 275 259 238 219 212 218 236 259 282 292 289 264 245 257 292 317 326 332 332 329 328 329 331 331 330 333 337 341 344 344 344 346 350 353 352 351 352 354 355 353 350 348 349 350 352 355 356 349 350 341 329 322 322 323 325 326 326 326 326 324 321 322 324 326 327 328 329 329 328 326 324 322 320 318 319 321 323 325 327 331 334 336 338
Height
820 819 818 818 817 816 815 815 814 813 812 811 810 809 808 807 806 806 805 804 803 801 801 799 798 797 796 796 795 794 793 792 791 791 790 789 788 787 786 785 784 782 781 780 779 778 776 775 774 772 771 770 769 767 766 765 764 762 761 760 759 758 757 756 754 753 752 751 749 748 747 746 745 744 742 742 741 740 739 738 737 736 736 735 734 733
819 818 818 817 816 816 814 814 813 813 811 810 809 808 807 806 805 804 803 803 802 801 800 799 798 796 796 795 794 793 792 791 791 790 789 788 787 786 785 784 783 781 780 779 778 776 775 774 773 771 770 769 768 766 765 764 762 761 760 759 758 756 756 754 753 752 751 749 748 747 746 745 744 742 741 741 740 738 737 736 735 734 734 733 732 731
818 817 816 816 816 815 814 813 812 812 811 810 809 808 807 806 805 804 802 801 801 800 799 798 797 796 795 794 793 792 791 791 790 789 788 787 786 785 784 783 781 780 779 778 777 776 774 773 771 770 769 767 766 765 764 762 761 760 759 757 756 755 754 753 751 750 749 748 747 746 745 743 742 741 740 739 738 737 735 734 733 733 732 731 730 729
817 816 816 815 815 814 813 812 811 811 810 809 808 807 806 805 804 803 802 801 800 799 798 797 796 795 794 793 792 791 791 790 789 788 787 786 785 784 783 781 781 779 778 777 776 774 773 771 770 769 767 766 765 764 762 761 760 759 757 756 755 753 752 751 750 749 748 746 746 744 743 742 741 740 739 737 736 735 733 732 732 731 731 730 729 727
816 816 815 815 814 813 812 811 811 810 809 808 807 806 805 805 803 802 801 800 799 798 797 796 796 795 794 792 791 791 790 789 788 787 786 785 784 783 781 781 780 778 777 776 775 773 772 771 769 768 766 765 763 762 761 759 758 757 756 754 753 752 751 749 748 747 746 745 744 743 741 740 739 738 737 736 735 733 732 731 731 730 729 728 727 726
815 815 814 814 813 812 811 810 810 809 808 807 806 805 804 803 802 801 800 799 798 797 796 795 795 794 793 792 791 790 789 788 787 786 785 784 782 781 781 780 779 777 776 775 773 772 771 769 768 766 765 763 762 760 759 757 756 755 754 752 751 750 749 748 747 746 745 743 742 741 740 738 737 736 735 734 733 732 731 730 729 729 728 727 726 725
814 814 814 813 812 811 810 809 808 808 807 806 805 804 803 802 801 801 799 798 797 796 795 794 793 792 791 791 790 789 788 787 786 784 783 782 781 780 779 778 777 776 775 774 772 771 769 768 766 765 763 762 760 759 757 756 754 753 752 751 750 748 747 746 745 744 743 742 741 739 738 737 736 735 733 733 732 731 730 729 728 727 726 725 724 723
813 812 812 812 811 809 809 808 807 807 806 805 804 802 801 801 800 799 798 797 796 795 794 793 792 791 790 789 788 787 786 785 784 782 781 781 780 779 778 777 776 775 774 772 771 770 768 766 765 763 762 760 758 757 755 754 753 751 750 749 748 747 746 745 743 742 741 740 739 738 736 735 734 733 732 731 730 729 728 727 726 725 724 723 722 721
812 811 810 810 810 808 807 806 806 806 805 804 803 802 801 799 798 797 797 796 795 794 793 792 791 789 789 788 787 786 785 784 782 781 780 779 778 777 777 776 775 773 772 771 770 768 767 765 763 762 760 758 757 755 754 752 751 750 749 748 746 745 744 743 742 741 740 738 737 736 735 733 732 731 730 729 728 727 726 725 724 723 722 721 720 719
811 810 809 808 808 807 806 805 804 804 804 803 802 801 801 799 797 796 795 794 794 793 792 791 790 788 787 786 786 785 783 782 781 780 780 779 778 777 776 775 773 772 771 769 768 766 765 763 762 760 758 757 755 754 752 751 750 749 747 746 745 744 743 741 740 739 738 736 736 734 733 732 731 730 729 728 727 726 724 723 722 721 721 719 718 717
809 809 808 806 806 806 805 804 803 802 802 801 801 800 800 799 797 796 794 793 792 791 791 790 789 788 786 784 784 783 782 780 779 778 778 777 776 776 774 773 772 770 769 768 766 765 763 761 760 758 757 756 754 752 751 750 749 747 746 745 744 742 741 740 739 737 736 735 734 733 731 731 729 728 727 726 725 724 723 722 721 720 719 717 716 715
807 807 806 805 804 804 803 802 802 801 801 801 799 798 798 798 797 796 794 792 791 790 789 788 787 787 786 784 782 781 780 779 778 777 776 776 775 774 773 771 770 769 767 766 764 763 761 760 758 757 756 754 753 751 750 749 747 746 745 744 742 741 740 738 737 736 735 734 732 731 730 729 728 727 726 725 723 722 721 720 719 718 717 716 714 713
806 805 804 803 802 802 801 801 801 800 800 800 799 798 796 796 796 795 794 792 791 789 788 786 785 785 784 783 782 780 779 778 777 776 775 774 774 773 771 770 768 766 765 764 762 761 760 758 757 756 755 753 751 750 749 747 746 745 744 742 741 740 738 737 736 735 733 732 731 730 728 727 726 725 724 723 721 720 719 718 717 716 715 714 713 711
804 803 803 802 801 801 800 800 800 799 799 799 798 797 796 795 794 794 793 791 790 789 787 786 784 783 782 782 781 780 779 778 776 775 774 773 772 771 770 768 766 765 764 762 761 759 758 757 756 754 753 751 750 749 747 746 745 744 742 741 740 738 737 736 734 733 732 731 729 728 727 726 725 724 722 721 720 719 718 717 716 715 713 712 711 710
802 801 801 800 799 799 799 799 799 798 798 797 797 796 795 794 793 793 792 790 788 787 786 785 783 782 782 781 781 780 778 777 775 774 772 771 771 770 769 767 765 764 763 761 760 758 757 756 755 753 751 750 749 747 746 745 744 742 741 740 738 737 736 734 733 732 731 729 728 727 726 725 723 722 721 720 719 718 716 715 714 713 711 710 709 708
800 800 799 798 798 797 797 798 797 797 796 796 795 795 794 792 792 791 791 789 787 786 785 783 781 780 780 780 780 779 777 776 774 773 771 769 768 768 767 766 764 762 761 760 759 757 756 755 753 751 750 749 747 746 745 744 742 741 740 738 737 736 734 733 732 731 729 728 727 726 725 723 722 721 720 718 717 716 715 714 712 711 710 708 707 706
799 798 798 797 796 796 796 796 796 796 795 794 794 793 792 791 791 790 789 788 786 785 784 783 782 780 777 776 777 777 777 775 773 771 770 768 767 767 766 765 763 761 760 759 758 756 755 753 751 750 749 747 746 745 744 743 741 740 739 737 736 735 733 732 731 730 728 727 726 725 723 722 721 720 718 717 716 715 713 712 711 709 708 706 705 704
797 797 796 796 795 795 795 795 794 794 793 793 792 791 791 790 790 789 788 787 786 785 783 783 782 781 779 776 775 775 776 775 773 771 769 767 766 765 765 764 762 761 759 757 756 755 754 752 751 749 748 747 746 744 743 741 740 739 737 736 735 734 732 731 730 728 727 726 725 723 722 721 719 718 717 716 714 713 711 710 709 707 706 705 703 702
796 796 795 795 794 793 793 793 792 792 791 791 791 790 789 788 788 787 786 786 785 784 783 782 781 780 779 777 775 774 774 774 772 770 768 766 765 764 763 762 761 760 758 756 755 754 752 751 750 748 747 746 745 743 742 741 739 738 736 735 734 733 731 730 729 727 726 725 723 722 721 719 718 717 715 714 713 711 710 708 707 706 704 703 701 700
794 794 794 793 792 791 791 791 791 791 790 790 789 788 788 787 786 785 785 784 783 783 782 782 781 779 778 776 774 773 773 773 771 769 767 765 764 763 762 761 760 758 756 755 754 753 751 750 748 747 746 745 743 742 741 740 738 737 736 734 733 731 730 729 728 726 725 724 722 721 719 718 717 715 714 712 711 710 708 706 705 704 702 701 699 698
792 792 792 792 791 791 790 789 789 789 789 788 788 787 786 785 784 784 783 783 782 782 781 781 780 778 777 776 774 773 772 772 771 768 766 764 763 762 761 761 759 757 755 754 752 751 750 749 747 746 745 744 742 741 740 739 737 736 735 733 732 731 729 728 726 725 724 722 721 720 718 717 715 714 712 711 709 708 706 705 703 701 700 699 698 696
791 790 790 790 790 789 788 787 787 787 787 787 786 786 785 784 783 782 782 781 781 781 780 779 778 777 776 775 774 772 772 771 770 768 766 764 761 760 760 760 758 756 755 753 751 750 749 748 746 745 744 743 741 740 739 738 736 735 734 732 731 730 728 727 726 724 722 721 720 718 717 715 714 712 711 709 707 706 704 703 701 699 697 696 696 694
790 789 788 788 788 787 786 786 786 786 786 785 785 784 783 782 781 781 781 781 780 779 779 778 777 776 775 774 773 771 771 770 769 768 766 764 761 759 759 759 758 756 754 752 751 749 748 746 745 744 742 741 741 739 738 737 736 734 733 731 730 729 727 726 725 723 721 720 718 717 716 714 712 711 709 707 706 704 702 701 699 698 696 695 694 693
788 787 786 786 786 785 785 784 784 784 783 783 782 781 781 780 780 780 780 779 779 778 777 776 776 775 774 773 772 771 770 769 769 767 766 764 761 759 759 758 757 755 753 751 750 749 747 745 743 742 741 740 739 738 737 736 735 733 732 731 729 728 726 725 724 722 721 719 717 716 714 713 711 709 707 706 704 703 701 699 698 696 695 693 692 691
786 785 785 784 784 784 783 782 782 782 781 781 780 779 779 779 779 778 778 778 777 777 776 776 775 774 772 772 771 770 769 768 768 767 766 763 761 759 758 758 757 755 752 750 749 748 746 744 742 741 740 739 738 737 736 735 734 732 731 730 728 727 726 724 722 721 720 718 716 715 713 711 710 708 706 705 703 701 700 698 696 695 693 692 691 690
784 783 783 782 782 781 781 781 780 780 780 779 778 778 777 777 777 777 777 776 776 776 775 775 774 773 772 771 770 769 768 767 767 766 765 764 761 759 758 757 756 755 752 750 748 747 745 743 741 740 739 738 737 736 735 734 732 731 730 728 727 726 725 723 722 720 718 717 715 714 712 711 709 707 706 704 702 700 699 697 695 694 692 691 690 689
783 782 781 781 781 780 779 779 779 778 778 778 777 777 776 775 775 775 775 775 775 775 775 774 774 772 771 770 769 768 767 767 766 766 765 763 761 759 757 756 756 754 751 749 747 746 745 742 741 739 737 736 736 735 734 733 731 730 729 727 726 725 724 722 721 719 717 716 714 713 711 710 708 707 705 703 701 700 698 696 694 693 691 690 688 687
781 781 780 780 779 778 778 778 777 777 777 776 776 776 775 774 773 773 773 774 774 774 774 774 773 772 771 769 768 767 766 766 766 765 764 763 761 759 757 756 755 753 751 748 746 744 744 742 740 738 737 736 735 733 732 731 730 729 727 726 725 724 722 721 720 718 716 715 714 712 711 709 708 706 705 703 701 700 698 696 694 692 691 689 688 686
779 778 778 777 777 776 776 776 776 776 775 775 774 774 773 772 772 772 772 772 773 773 773 773 773 772 771 769 768 766 766 765 765 764 763 762 761 759 757 756 754 753 751 748 745 742 741 741 740 738 736 735 734 732 731 730 729 727 726 725 724 722 721 720 718 717 716 714 713 711 710 708 707 706 704 702 701 699 698 696 694 692 690 688 687 686
776 776 775 775 774 774 774 774 774 773 773 772 771 771 771 771 771 772 771 771 772 772 772 772 771 771 770 769 767 765 764 764 764 764 763 762 760 758 756 755 754 752 751 748 745 741 739 738 737 737 736 734 733 731 730 729 728 726 725 724 722 721 720 719 717 716 714 713 711 710 709 707 706 705 703 702 700 699 697 696 694 692 690 688 686 685
774 773 773 772 772 771 771 771 771 771 771 770 770 770 770 771 771 771 771 771 771 771 771 771 771 770 770 769 767 765 763 763 763 763 762 761 759 757 756 755 753 752 751 751 748 744 740 736 735 734 734 733 732 731 730 729 727 726 725 723 721 720 719 717 716 714 713 711 710 709 708 706 705 704 702 701 699 698 696 695 693 692 690 688 686 684
772 771 771 770 769 769 769 769 769 769 769 769 769 769 769 770 770 770 770 770 770 770 770 770 770 769 769 768 767 766 764 763 762 762 762 761 759 757 756 755 753 752 752 751 751 749 745 740 736 733 732 731 731 730 729 728 727 726 724 723 721 719 717 716 715 713 711 710 709 708 706 705 704 702 701 700 698 697 695 694 693 691 689 687 685 683
770 770 769 768 768 767 767 767 767 767 768 768 768 768 768 769 769 769 769 769 769 769 769 769 769 768 767 766 766 765 764 763 762 762 761 760 758 756 756 755 754 752 752 751 751 750 748 744 740 736 733 731 730 729 728 727 726 726 724 722 721 718 717 715 714 712 711 709 708 706 705 704 702 701 700 698 697 696 694 693 692 691 689 687 685 683
768 768 768 767 767 766 766 766 766 766 766 767 767 767 767 768 768 768 768 768 768 768 768 768 768 767 766 765 764 763 762 762 761 761 761 759 758 756 755 754 754 753 752 751 750 748 747 745 742 738 734 731 729 728 727 727 726 725 724 722 721 719 716 715 713 712 710 708 707 705 704 702 701 700 698 697 696 694 693 691 691 689 688 686 685 683
767 767 767 766 766 766 765 765 765 765 766 766 766 766 766 767 767 767 767 767 767 767 767 767 766 766 765 765 763 762 761 761 760 760 760 759 758 756 755 754 754 753 752 751 749 748 746 743 741 739 736 732 728 726 726 726 725 724 723 722 720 719 716 715 713 712 710 708 706 705 703 701 700 699 697 696 694 693 692 690 689 688 686 685 684 682
766 766 766 765 765 765 765 765 765 765 765 765 765 766 766 766 766 766 766 766 766 766 766 766 766 765 764 764 763 762 761 760 759 759 759 758 757 756 755 754 753 753 752 751 749 748 746 743 741 739 737 734 730 727 725 724 724 723 721 720 719 717 716 714 713 711 710 708 706 704 703 701 700 698 696 695 693 692 690 689 687 686 685 683 682 681
765 764 764 764 764 764 764 764 764 764 764 764 764 765 765 766 766 766 766 765 765 765 765 765 764 764 763 762 762 761 760 759 759 758 758 757 757 756 755 754 753 752 752 751 749 748 746 744 741 738 736 735 732 729 726 724 722 721 720 719 717 716 715 713 712 711 710 708 706 704 703 701 700 697 696 694 692 690 688 687 686 684 683 681 680 679
764 763 763 763 762 762 762 762 762 762 762 763 763 764 765 765 766 765 765 765 764 764 764 763 763 763 762 761 761 760 760 759 758 758 757 756 756 755 754 753 752 752 751 750 749 748 746 744 742 739 736 734 732 731 728 726 724 721 719 717 716 715 714 713 712 711 709 707 706 704 702 701 699 697 695 693 691 689 686 685 683 682 681 679 678 677
763 763 762 762 762 761 761 761 761 761 762 762 763 764 764 765 765 765 765 764 763 763 762 762 762 761 761 761 760 760 759 758 758 757 756 756 755 755 754 753 752 751 750 749 748 747 746 745 743 741 738 735 732 730 728 727 726 723 720 717 715 713 713 712 711 710 708 707 706 704 702 700 698 696 694 692 690 688 686 684 682 681 679 677 676 674
763 762 761 761 761 761 761 761 761 761 762 762 762 763 764 764 765 765 764 763 762 762 761 761 761 760 760 760 759 759 758 758 757 756 756 755 755 754 753 752 751 750 749 748 747 746 745 744 742 741 739 736 734 731 729 727 726 724 722 719 716 713 711 711 710 709 708 707 706 704 702 700 698 696 694 692 690 688 686 684 682 680 678 677 676 674
762 761 761 760 760 760 760 760 760 761 761 761 761 762 763 763 764 764 763 762 761 761 760 760 759 759 759 759 759 758 758 757 756 756 755 755 754 753 752 751 750 749 748 746 745 744 743 742 741 740 738 736 735 732 730 727 726 725 724 722 719 716 713 711 710 709 708 706 705 703 701 700 697 696 693 691 689 687 686 684 681 680 678 677 676 674
761 760 759 759 759 759 758 759 759 760 760 760 761 761 762 763 763 763 762 761 760 759 759 758 758 758 758 758 758 757 757 756 756 755 755 754 753 752 751 751 750 748 747 745 744 742 741 741 740 739 737 736 734 732 729 727 725 725 724 722 719 716 713 711 710 709 708 706 704 703 701 699 697 695 693 691 688 686 684 683 681 680 678 676 675 674
759 758 758 758 757 757 757 757 758 758 758 759 760 760 761 762 762 762 761 759 758 758 758 758 757 757 757 757 757 756 756 756 756 755 754 753 752 751 751 750 749 747 746 745 742 741 740 739 738 737 736 735 734 732 730 727 725 724 723 722 720 717 714 711 709 708 707 706 704 702 700 698 696 694 692 689 687 685 683 681 680 679 677 676 674 672
758 757 757 756 756 756 756 756 756 756 757 758 759 760 761 761 761 760 759 758 757 757 757 757 757 757 756 756 756 756 755 755 755 754 753 753 752 751 750 749 748 747 746 744 742 740 738 737 736 735 734 734 733 731 729 727 725 723 722 721 720 718 716 713 710 708 706 704 702 701 699 697 696 693 691 688 686 684 682 680 678 677 676 674 673 671
757 756 756 756 755 755 755 755 755 756 756 757 758 759 760 760 760 759 757 757 756 757 757 757 757 756 756 756 756 755 754 754 754 753 753 752 751 750 749 748 747 746 745 743 742 740 738 736 734 733 732 732 731 730 729 727 725 723 721 720 719 717 715 713 711 709 707 704 702 700 698 696 695 692 690 687 684 682 681 679 677 676 674 673 671 670
756 755 755 754 754 754 754 754 755 755 756 757 758 759 759 759 758 757 757 756 756 756 756 756 756 756 756 756 755 754 754 753 752 752 751 751 750 749 748 747 746 745 744 742 741 739 738 736 734 732 731 730 729 728 727 726 725 723 721 719 718 716 714 712 710 709 707 705 702 699 697 696 694 692 689 686 684 681 679 678 676 675 673 671 670 668
755 754 754 753 753 753 753 754 754 755 756 757 758 758 758 758 757 756 756 756 756 756 756 756 756 756 756 756 755 754 753 752 751 750 750 749 749 748 747 746 746 744 743 741 740 738 736 734 733 732 731 730 728 727 726 726 725 723 721 719 717 716 713 711 709 708 706 704 702 699 697 695 693 691 689 686 683 681 678 676 675 673 672 670 669 667
753 753 753 752 752 752 753 753 754 755 756 756 757 757 757 756 756 756 756 756 756 756 756 756 756 756 756 755 755 754 753 752 751 750 749 748 747 747 746 745 744 743 741 740 738 737 735 733 732 731 730 729 728 727 726 725 724 723 721 720 718 716 714 711 709 707 706 704 701 700 697 696 694 691 688 686 683 680 677 675 673 672 671 669 668 666
752 752 751 751 751 752 752 753 753 754 755 756 756 756 756 756 756 756 756 756 756 756 756 756 756 756 755 755 754 753 753 752 751 750 748 748 747 746 745 744 743 741 740 738 737 735 734 732 731 730 730 729 728 726 725 724 723 722 721 719 718 716 714 711 709 707 705 703 701 699 697 696 694 691 689 686 683 680 677 675 672 671 670 668 667 665
751 751 751 751 751 751 752 752 753 754 754 755 755 755 756 756 756 756 756 756 756 756 756 756 756 755 755 754 754 753 752 751 750 749 748 748 747 746 745 744 742 740 738 736 735 734 732 731 730 730 729 729 728 727 726 724 722 721 720 719 717 716 714 712 709 707 705 703 701 698 696 694 693 691 689 686 684 681 677 675 672 670 669 667 666 664
750 750 750 750 750 751 751 752 753 753 754 754 754 755 755 755 755 755 755 755 756 756 755 755 755 755 755 754 753 753 752 751 750 749 748 748 747 746 745 744 742 741 739 736 735 733 732 731 730 729 729 729 729 728 726 725 722 721 719 718 716 716 714 712 709 707 705 703 701 698 696 694 692 690 689 686 684 681 678 675 672 670 668 666 664 662